sat.trackr.live / text

‹ back to catalog

AEROCUBE 7

NORAD 40966 · 2015-058C

PAYLOAD ACTIVE UNKNOWN

§ Identity

Operator
Country
US
Launch date
2015-10-08
Launch site
AFWTR
Launch vehicle
Mass (kg)
RCS (m²)

Purposes: tech_demo

External: N2YO · Heavens-Above · Gunter

§ Orbital elements

Epoch: 2026-09-12T16:05:48.211296Z

Period
96.24 min
Inclination
64.7634°
Eccentricity
0.0127134
Mean motion
14.96295440 rev/d
Perigee alt
489.9 km
Apogee alt
666.8 km
Semi-major
6,956.5 km
B*
1.5631e-4
RAAN
330.6595°
Arg perigee
28.3176°
Mean anomaly
332.4772°
Rev number
37,904

§ Raw data

AEROCUBE 71 40966U 15058C   26255.67069689  .00001897  00000+0  15631-3 0  99982 40966  64.7634 330.6595 0127134  28.3176 332.4772 14.96295440379048

JSON: /api/v1/satellites/40966 · /tle

For live sub-satellite position, see the globe view (requires WebGL).

§ Visibility from observer

Set your observer location to see the next 7 days of passes ≥ 10°. The values pass through the URL so the page stays shareable.

No JS? Fill the form by hand. The geolocation button needs JavaScript.